Location: New Frontier Mobile Home Park
(32.8448°N, 116.9675°W)
Time: 23:13:47
(UTC+00:00)

Cosmos 1544 - Pass Details

Date: 14 July 2020
Orbit: 473 x 490 km, 82.5° (Epoch: 05 August)

Event Time Altitude Azimuth Distance (km) Brightness Sun altitude
Exits shadow 10:51:38 51° 140° (SE) 602 3.4 -21.0°
Maximum altitude 10:52:13 61° 95° (E) 542 3.4 -20.9°
Drops below altitude 10° 10:55:46 10° 14° (NNE) 1,642 6.6 -20.4°
Sets 10:57:52 0° 11° (N) 2,523 7.6 -20.1°
